[Iaude] MPEC K84: 2017 BH233 [a=44.25,e=0.06,i=4.2,H=8.62]

mpec at cfa.harvard.edu mpec at cfa.harvard.edu
Thu May 23 13:22:55 EDT 2024


M.P.E.C. 2024-K84                                  Issued 2024 May 23, 17:21 UT

     The Minor Planet Electronic Circulars contain information on unusual
         minor planets, routine data on comets and natural satellites,
         and occasional editorial announcements.  They are published
    on behalf of Division F of the International Astronomical Union by the
          Minor Planet Center, Smithsonian Astrophysical Observatory,
                          Cambridge, MA 02138, U.S.A.
			  
             Prepared using the Tamkin Foundation Computer Network

                              MPC at CFA.HARVARD.EDU
            URL https://www.minorplanetcenter.net/    ISSN 1523-6714

                                   2017 BH233                                   


Additional Observations:
     K17BN3H 1C2016 04 02.40375212 24 28.24 +00 57 29.3                WEK084T09
     K17BN3H 1C2016 04 02.52326712 24 27.72 +00 57 32.4                WEK084T09
     K17BN3H 1C2016 06 05.32005012 21 15.92 +01 14 28.6                WEK084T09
     K17BN3H 1C2016 06 05.34551812 21 15.88 +01 14 28.7                WEK084T09

Observer details:
T09 Subaru Telescope, Maunakea.  Observer .  Measurer S. Deen.  8.3-m Subaru
    Telescope + CCD.

Orbital elements:
2017 BH233                                                                      
Epoch 2024 Mar. 31.0 TT = JDT 2460400.5                 Alexandersen            
M 277.61924              (2000.0)            P               Q                  
n   0.00334868     Peri.  228.28467     +0.25446906     +0.96518941             
a  44.2472938      Node    56.55446     -0.86437760     +0.25503494             
e   0.0643573      Incl.    4.15491     -0.43370136     +0.05802231             
P 294              H    8.62          G   0.15           U   7                  
Residuals in seconds of arc
160402 T09  0.0   0.0     170123 T09  0.1+  0.2+    170223 T09  0.1+  0.0
160402 T09  0.1-  0.0     170128 T09  0.2-  0.2-    170223 T09  0.1-  0.1-
160605 T09  0.1+  0.0     170128 T09  0.0   0.0     170223 T09  0.0   0.0
160605 T09  0.1-  0.1+    170128 T09  0.1-  0.1+    170223 T09  0.1-  0.2-
170123 T09  0.1+  0.2-    170128 T09  0.1+  0.1+
170123 T09  0.1+  0.2+    170128 T09  0.0   0.0

Ephemeris:
2017 BH233               a,e,i = 44.25, 0.06, 4                  q = 41.3997
Date    TT    R. A. (2000) Decl.     Delta      r    Elong.  Phase     V
2024 04 23    12 58 58.4 -03 15 20  43.0925 44.0478   161.6     0.4    25.1
...
2024 05 08    12 58 00.6 -03 09 57  43.1963 44.0453   146.9     0.7    25.1
...
2024 05 16    12 57 33.8 -03 07 35  43.2749 44.0440   139.1     0.9    25.2
...
2024 05 22    12 57 16.0 -03 06 05  43.3433 44.0430   133.2     1.0    25.2
2024 05 23    12 57 13.2 -03 05 51  43.3554 44.0428   132.3     1.0    25.2
2024 05 24    12 57 10.5 -03 05 38  43.3677 44.0426   131.3     1.0    25.2
...
2024 05 30    12 56 55.7 -03 04 30  43.4453 44.0417   125.5     1.1    25.2
...
2024 06 07    12 56 39.9 -03 03 24  43.5582 44.0403   117.8     1.2    25.2
...
2024 06 22    12 56 23.2 -03 02 49  43.7913 44.0378   103.4     1.3    25.2

M. P. C. Staff               (C) Copyright 2024 MPC           M.P.E.C. 2024-K84





More information about the Iaude mailing list